Location: Unspecified
(0.0000°N, 0.0000°E)
Time: 04:55:41
(UTC+00:00)

A-11 Canister half - Pass Details

Date: 18 April 2026
Orbit: 1523 x 1685 km, 47.3° (Epoch: 13 May)

Event Time Altitude Azimuth Distance (km) Brightness Sun altitude
Rises 10:17:50 0° 302° (WNW) 4,828 11.5 62.5°
Reaches altitude 10° 10:21:17 10° 295° (WNW) 3,820 11.0 63.3°
Maximum altitude 10:30:00 38° 230° (SW) 2,229 10.1 65.3°
Drops below altitude 10° 10:38:31 10° 165° (SSE) 3,719 11.1 67.1°
Sets 10:41:52 0° 157° (SSE) 4,689 11.5 67.9°
